This is the latest recevied weather packets stored in our database for station/object SP1BMW-13. If no packets are shown the sender has not sent any weather packets the latest 10 day(s).
| Time | Temp. | Humidity | Pressure | Rain* | Wind** | Luminosity | Snow |
|---|---|---|---|---|---|---|---|
| 1787882477 | 17.78° C | 61% | 1013.8 hPa | 0 mm | 1.79 m/s, 344° | 0 W/m² | - |
| 1787882416 | 17.78° C | 61% | 1013.8 hPa | 0 mm | 0.45 m/s, 20° | 0 W/m² | - |
| 1787882356 | 17.78° C | 62% | 1013.8 hPa | 0 mm | 0.45 m/s, 98° | 0 W/m² | - |
| 1787882296 | 17.78° C | 61% | 1014.1 hPa | 0 mm | 0.45 m/s, 347° | 0 W/m² | - |
| 1787882237 | 17.78° C | 61% | 1014.1 hPa | 0 mm | 0.45 m/s, 141° | 0 W/m² | - |
| 1787882177 | 17.78° C | 61% | 1014.1 hPa | 0 mm | 0.45 m/s, 37° | 0 W/m² | - |
| 1787882116 | 17.78° C | 61% | 1013.9 hPa | 0 mm | 0.45 m/s, 78° | 0 W/m² | - |
| 1787882057 | 17.78° C | 61% | 1014 hPa | 0 mm | 0.45 m/s, 94° | 0 W/m² | - |
| 1787881996 | 17.78° C | 61% | 1014.1 hPa | 0 mm | 2.24 m/s, 53° | 0 W/m² | - |
| 1787881936 | 17.78° C | 61% | 1013.9 hPa | 0 mm | 1.34 m/s, 36° | 0 W/m² | - |
| 1787881877 | 17.78° C | 61% | 1014.2 hPa | 0 mm | 0.89 m/s, 28° | 0 W/m² | - |
| 1787881818 | 17.78° C | 61% | 1014 hPa | 0 mm | 0.45 m/s, 35° | 0 W/m² | - |
| 1787881757 | 17.78° C | 61% | 1014 hPa | 0 mm | 1.34 m/s, 90° | 0 W/m² | - |
| 1787881696 | 17.78° C | 61% | 1014 hPa | 0 mm | 0 m/s | 0 W/m² | - |
| 1787881636 | 17.78° C | 61% | 1014.2 hPa | 0 mm | 1.79 m/s, 25° | 0 W/m² | - |
| 1787881576 | 17.78° C | 61% | 1014 hPa | 0 mm | 0.89 m/s, 88° | 0 W/m² | - |
| 1787881516 | 17.78° C | 61% | 1014.1 hPa | 0 mm | 1.34 m/s, 39° | 0 W/m² | - |
| 1787881456 | 17.78° C | 61% | 1014.1 hPa | 0 mm | 0.89 m/s, 51° | 0 W/m² | - |
| 1787881396 | 17.78° C | 61% | 1014.2 hPa | 0 mm | 0.89 m/s, 110° | 0 W/m² | - |
| 1787881336 | 17.78° C | 61% | 1014.4 hPa | 0 mm | 0.45 m/s, 52° | 0 W/m² | - |
| 1787881276 | 17.78° C | 61% | 1014.4 hPa | 0 mm | 1.34 m/s, 120° | 0 W/m² | - |
| 1787881216 | 17.78° C | 61% | 1014.3 hPa | 0 mm | 0.89 m/s, 142° | 0 W/m² | - |
| 1787881157 | 17.78° C | 61% | 1014.4 hPa | 0 mm | 0.89 m/s, 88° | 0 W/m² | - |
| 1787881097 | 17.78° C | 61% | 1014.6 hPa | 0 mm | 0.89 m/s, 87° | 0 W/m² | - |
| 1787881036 | 17.78° C | 61% | 1014.4 hPa | 0 mm | 0.89 m/s, 107° | 0 W/m² | - |
* Rain latest hour (hover to see other rain measurements)
** Current wind speed in m/s (hover to see current wind gust speed)